sat.trackr.live / text

‹ back to catalog

DB-PFW

NORAD 68466 · 2026-067BC

PAYLOAD ACTIVE UNKNOWN

§ Identity

Operator
Country
US
Launch date
2026-03-30
Launch site
AFWTR
Launch vehicle
Mass (kg)
RCS (m²)

External: N2YO · Heavens-Above · Gunter

§ Orbital elements

Epoch: 2026-09-19T23:16:52.752000Z

Period
94.82 min
Inclination
97.4588°
Eccentricity
0.0007903
Mean motion
15.18697960 rev/d
Perigee alt
504.3 km
Apogee alt
515.2 km
Semi-major
6,887.9 km
B*
2.5283e-4
RAAN
219.8573°
Arg perigee
105.7143°
Mean anomaly
254.4964°
Rev number
2,616

§ Raw data

DB-PFW1 68466U 26067BC  26262.97005500  .00005181  00000+0  25283-3 0  99922 68466  97.4588 219.8573 0007903 105.7143 254.4964 15.18697960 26169

JSON: /api/v1/satellites/68466 · /tle

For live sub-satellite position, see the globe view (requires WebGL).

§ Visibility from observer

Set your observer location to see the next 7 days of passes ≥ 10°. The values pass through the URL so the page stays shareable.

No JS? Fill the form by hand. The geolocation button needs JavaScript.